| time (UTC) | temp F | wind direction | speed MPH | gust MPH | rain 1hr in | rain 24hr in | rain mn in | humidity % | barometer mb |
| 20260504081516 | 46 | 345 | 16.0 | 20.0 | 0.00 | 0.00 | 0.00 | 47 | 1006.2 |
| 20260504060106 | 47 | 345 | 7.0 | 11.0 | 0.00 | 0.00 | 0.00 | 44 | 1006.6 |
| 20260504050106 | 52 | 345 | 6.0 | 11.0 | 0.00 | 0.00 | 0.00 | 37 | 1006.7 |
| 20260504044551 | 51 | 345 | 7.0 | 9.0 | 0.00 | 0.00 | 0.00 | 40 | 1006.6 |
| 20260504043056 | 50 | 345 | 8.0 | 10.0 | 0.00 | 0.00 | 0.00 | 41 | 1006.6 |
| 20260504041548 | 48 | 345 | 5.0 | 8.0 | 0.00 | 0.00 | 0.00 | 45 | 1006.5 |
| 20260504040048 | 51 | 345 | 5.0 | 8.0 | 0.00 | 0.00 | 0.00 | 41 | 1006.5 |
| 20260504034545 | 53 | 345 | 4.0 | 5.0 | 0.00 | 0.00 | 0.00 | 36 | 1006.5 |
| 20260504033054 | 53 | 345 | 5.0 | 6.0 | 0.00 | 0.00 | 0.00 | 38 | 1006.2 |
| 20260504031551 | 52 | 345 | 5.0 | 6.0 | 0.00 | 0.00 | 0.00 | 38 | 1005.9 |
| 20260504030048 | 55 | 345 | 4.0 | 6.0 | 0.00 | 0.00 | 0.00 | 34 | 1005.6 |
| 20260504024547 | 57 | 208 | 5.0 | 7.0 | 0.00 | 0.00 | 0.00 | 30 | 1005.5 |
| 20260504023043 | 60 | 214 | 5.0 | 11.0 | 0.00 | 0.00 | 0.00 | 27 | 1005.5 |
| 20260504021541 | 61 | 212 | 7.0 | 11.0 | 0.00 | 0.00 | 0.00 | 26 | 1005.4 |
| 20260504020040 | 63 | 212 | 6.0 | 14.0 | 0.00 | 0.00 | 0.00 | 24 | 1005.5 |
| 20260504014553 | 64 | 218 | 9.0 | 15.0 | 0.00 | 0.00 | 0.00 | 24 | 1005.5 |
| 20260504013042 | 64 | 289 | 9.0 | 15.0 | 0.00 | 0.00 | 0.00 | 22 | 1005.6 |
| 20260504011539 | 65 | 287 | 10.0 | 17.0 | 0.00 | 0.00 | 0.00 | 21 | 1005.9 |
| 20260504010035 | 65 | 291 | 10.0 | 19.0 | 0.00 | 0.00 | 0.00 | 21 | 1006.0 |
| 20260504004534 | 66 | 309 | 11.0 | 17.0 | 0.00 | 0.00 | 0.00 | 21 | 1006.1 |
| 20260504003033 | 66 | 234 | 15.0 | 20.0 | 0.00 | 0.00 | 0.00 | 21 | 1006.2 |
| 20260504001537 | 66 | 219 | 13.0 | 21.0 | 0.00 | 0.00 | 0.00 | 19 | 1006.3 |
| 20260504000040 | 66 | 219 | 11.0 | 24.0 | 0.00 | 0.00 | 0.00 | 20 | 1006.4 |
| 20260503234530 | 67 | 188 | 9.0 | 20.0 | 0.00 | 0.00 | 0.00 | 21 | 1006.4 |
| 20260503233028 | 66 | 284 | 9.0 | 23.0 | 0.00 | 0.00 | 0.00 | 21 | 1006.5 |
| 20260503231527 | 67 | 306 | 10.0 | 18.0 | 0.00 | 0.00 | 0.00 | 21 | 1006.6 |
| 20260503230025 | 67 | 232 | 8.0 | 15.0 | 0.00 | 0.00 | 0.00 | 21 | 1006.7 |
| 20260503224528 | 67 | 286 | 10.0 | 23.0 | 0.00 | 0.00 | 0.00 | 20 | 1006.8 |
| 20260503223024 | 68 | 322 | 13.0 | 18.0 | 0.00 | 0.00 | 0.00 | 21 | 1006.9 |
| 20260503221520 | 67 | 271 | 11.0 | 19.0 | 0.00 | 0.00 | 0.00 | 22 | 1007.1 |
| 20260503220021 | 67 | 345 | 6.0 | 18.0 | 0.00 | 0.00 | 0.00 | 22 | 1007.2 |
| 20260503214529 | 66 | 266 | 7.0 | 23.0 | 0.00 | 0.00 | 0.00 | 21 | 1007.5 |
| 20260503213017 | 67 | 174 | 9.0 | 18.0 | 0.00 | 0.00 | 0.00 | 20 | 1007.8 |
| 20260503211513 | 66 | 188 | 8.0 | 17.0 | 0.00 | 0.00 | 0.00 | 21 | 1007.9 |
| 20260503210032 | 66 | 204 | 9.0 | 20.0 | 0.00 | 0.00 | 0.00 | 21 | 1008.2 |
| 20260503204510 | 65 | 171 | 6.0 | 22.0 | 0.00 | 0.00 | 0.00 | 23 | 1008.4 |
| 20260503203014 | 66 | 258 | 10.0 | 20.0 | 0.00 | 0.00 | 0.00 | 22 | 1008.6 |
| 20260503201505 | 65 | 212 | 9.0 | 15.0 | 0.00 | 0.00 | 0.00 | 25 | 1008.9 |
| 20260503200002 | 65 | 144 | 8.0 | 22.0 | 0.00 | 0.00 | 0.00 | 24 | 1009.1 |
| 20260503194626 | 65 | 183 | 12.0 | 18.0 | 0.00 | 0.00 | 0.00 | 26 | 1009.4 |
| 20260503193058 | 64 | 200 | 12.0 | 20.0 | 0.00 | 0.00 | 0.00 | 26 | 1009.7 |
| 20260503191602 | 64 | 229 | 11.0 | 20.0 | 0.00 | 0.00 | 0.00 | 27 | 1009.9 |
| 20260503190101 | 64 | 221 | 7.0 | 20.0 | 0.00 | 0.00 | 0.00 | 29 | 1010.0 |
| 20260503184556 | 64 | 248 | 12.0 | 21.0 | 0.00 | 0.00 | 0.00 | 27 | 1010.2 |
| 20260503183104 | 63 | 246 | 12.0 | 22.0 | 0.00 | 0.00 | 0.00 | 30 | 1010.4 |
| 20260503181550 | 63 | 223 | 10.0 | 24.0 | 0.00 | 0.00 | 0.00 | 29 | 1010.5 |
| 20260503180056 | 62 | 11 | 10.0 | 17.0 | 0.00 | 0.00 | 0.00 | 29 | 1010.7 |
| 20260503174545 | 61 | 184 | 11.0 | 16.0 | 0.00 | 0.00 | 0.00 | 30 | 1011.0 |
| 20260503173127 | 61 | 248 | 9.0 | 15.0 | 0.00 | 0.00 | 0.00 | 33 | 1011.1 |
| 20260503171547 | 63 | 35 | 6.0 | 16.0 | 0.00 | 0.00 | 0.00 | 31 | 1011.0 |